Time,TemperatureF,DewpointF,PressureIn,WindDirection,WindDirectionDegrees,WindSpeedMPH,WindSpeedGustMPH,Humidity,HourlyPrecipIn,Conditions,Clouds,dailyrainin,SoftwareType,DateUTC
2013-02-03 00:01:00,22.1,19.0,30.05,WNW,283,1.0,2.0,89,0.00,,,0.00,weatherlink.com 1.10,2013-02-03 05:01:00,
2013-02-03 00:16:00,21.9,19.0,30.05,NNW,336,1.0,6.0,89,0.00,,,0.00,weatherlink.com 1.10,2013-02-03 05:16:00,
2013-02-03 00:31:00,21.3,19.0,30.04,NNW,340,1.0,5.0,89,0.00,,,0.00,weatherlink.com 1.10,2013-02-03 05:31:00,
2013-02-03 00:46:00,20.5,18.0,30.04,WNW,302,2.0,6.0,88,0.00,,,0.00,weatherlink.com 1.10,2013-02-03 05:46:00,
2013-02-03 01:01:00,20.1,17.0,30.04,West,277,1.0,3.0,88,0.00,,,0.00,weatherlink.com 1.10,2013-02-03 06:01:00,
2013-02-03 01:16:00,20.0,17.0,30.03,West,276,4.0,4.0,89,0.00,,,0.00,weatherlink.com 1.10,2013-02-03 06:16:00,
2013-02-03 01:32:00,19.8,17.0,30.02,WNW,284,2.0,6.0,89,0.00,,,0.00,weatherlink.com 1.10,2013-02-03 06:32:00,
2013-02-03 01:47:00,19.4,17.0,30.02,NE,41,1.0,6.0,90,0.00,,,0.00,weatherlink.com 1.10,2013-02-03 06:47:00,
2013-02-03 02:02:00,18.9,16.0,30.02,West,268,9.0,9.0,89,0.00,,,0.00,weatherlink.com 1.10,2013-02-03 07:02:00,
2013-02-03 02:17:00,18.4,16.0,30.01,WNW,292,4.0,4.0,90,0.00,,,0.00,weatherlink.com 1.10,2013-02-03 07:17:00,
2013-02-03 02:32:00,17.8,15.0,30.02,South,186,2.0,6.0,89,0.00,,,0.00,weatherlink.com 1.10,2013-02-03 07:32:00,
2013-02-03 02:47:00,17.5,15.0,30.01,West,273,0.0,5.0,89,0.00,,,0.00,weatherlink.com 1.10,2013-02-03 07:47:00,
2013-02-03 03:02:00,17.5,15.0,30.01,SW,232,2.0,5.0,89,0.00,,,0.00,weatherlink.com 1.10,2013-02-03 08:02:00,
2013-02-03 03:17:00,17.1,14.0,30.01,WNW,285,1.0,7.0,88,0.00,,,0.00,weatherlink.com 1.10,2013-02-03 08:17:00,
2013-02-03 03:32:00,16.8,14.0,30.00,West,273,0.0,4.0,89,0.00,,,0.00,weatherlink.com 1.10,2013-02-03 08:32:00,
2013-02-03 03:47:00,16.4,14.0,30.00,West,280,1.0,6.0,88,0.00,,,0.00,weatherlink.com 1.10,2013-02-03 08:47:00,
2013-02-03 04:02:00,15.9,13.0,30.00,NNW,328,1.0,6.0,88,0.00,,,0.00,weatherlink.com 1.10,2013-02-03 09:02:00,
2013-02-03 04:17:00,15.3,12.0,29.99,West,269,1.0,6.0,87,0.00,,,0.00,weatherlink.com 1.10,2013-02-03 09:17:00,
2013-02-03 04:32:00,14.8,11.0,29.99,West,263,3.0,6.0,86,0.00,,,0.00,weatherlink.com 1.10,2013-02-03 09:32:00,
2013-02-03 04:47:00,14.2,11.0,29.98,East,80,0.0,6.0,86,0.00,,,0.00,weatherlink.com 1.10,2013-02-03 09:47:00,
2013-02-03 05:02:00,13.9,11.0,29.99,West,260,4.0,5.0,86,0.00,,,0.00,weatherlink.com 1.10,2013-02-03 10:02:00,
2013-02-03 05:17:00,13.5,10.0,29.98,West,269,0.0,5.0,87,0.00,,,0.00,weatherlink.com 1.10,2013-02-03 10:17:00,
2013-02-03 05:32:00,13.2,10.0,29.97,West,266,1.0,4.0,87,0.00,,,0.00,weatherlink.com 1.10,2013-02-03 10:32:00,
2013-02-03 05:47:00,12.9,10.0,29.97,West,262,0.0,4.0,86,0.00,,,0.00,weatherlink.com 1.10,2013-02-03 10:47:00,
2013-02-03 06:02:00,12.5,9.0,29.98,SW,235,3.0,4.0,86,0.00,,,0.00,weatherlink.com 1.10,2013-02-03 11:02:00,
2013-02-03 06:17:00,12.3,9.0,29.98,North,11,0.0,5.0,86,0.00,,,0.00,weatherlink.com 1.10,2013-02-03 11:17:00,
2013-02-03 06:32:00,12.3,9.0,29.98,WNW,298,2.0,4.0,87,0.00,,,0.00,weatherlink.com 1.10,2013-02-03 11:32:00,
2013-02-03 06:47:00,12.3,9.0,29.98,WSW,247,1.0,4.0,87,0.00,,,0.00,weatherlink.com 1.10,2013-02-03 11:47:00,
2013-02-03 07:02:00,12.2,9.0,29.97,NW,313,1.0,4.0,87,0.00,,,0.00,weatherlink.com 1.10,2013-02-03 12:02:00,
2013-02-03 07:17:00,12.1,9.0,29.97,NW,308,0.0,3.0,87,0.00,,,0.00,weatherlink.com 1.10,2013-02-03 12:17:00,
2013-02-03 07:32:00,12.2,9.0,29.98,WNW,292,1.0,4.0,87,0.00,,,0.00,weatherlink.com 1.10,2013-02-03 12:32:00,
2013-02-03 07:47:00,12.2,9.0,29.98,NE,48,1.0,6.0,87,0.00,,,0.00,weatherlink.com 1.10,2013-02-03 12:47:00,
2013-02-03 08:03:00,12.4,9.0,29.99,WNW,287,3.0,6.0,86,0.00,,,0.00,weatherlink.com 1.10,2013-02-03 13:03:00,
2013-02-03 08:18:00,12.6,9.0,30.00,WSW,250,1.0,6.0,85,0.00,,,0.00,weatherlink.com 1.10,2013-02-03 13:18:00,
2013-02-03 08:33:00,13.0,9.0,30.01,West,272,2.0,7.0,84,0.00,,,0.00,weatherlink.com 1.10,2013-02-03 13:33:00,
2013-02-03 08:48:00,13.5,9.0,30.01,WNW,293,2.0,6.0,83,0.00,,,0.00,weatherlink.com 1.10,2013-02-03 13:48:00,
2013-02-03 09:03:00,14.2,10.0,30.01,WNW,285,2.0,5.0,82,0.00,,,0.00,weatherlink.com 1.10,2013-02-03 14:03:00,
2013-02-03 09:18:00,14.9,10.0,30.01,WNW,291,2.0,6.0,82,0.00,,,0.00,weatherlink.com 1.10,2013-02-03 14:18:00,
2013-02-03 09:33:00,15.7,11.0,30.00,WNW,287,3.0,6.0,81,0.00,,,0.00,weatherlink.com 1.10,2013-02-03 14:33:00,
2013-02-03 09:48:00,16.3,11.0,30.00,NNE,18,2.0,10.0,80,0.00,,,0.00,weatherlink.com 1.10,2013-02-03 14:48:00,
2013-02-03 10:03:00,16.7,12.0,30.01,North,354,3.0,8.0,80,0.00,,,0.00,weatherlink.com 1.10,2013-02-03 15:03:00,
2013-02-03 10:18:00,17.4,12.0,30.01,NNW,348,5.0,8.0,80,0.00,,,0.00,weatherlink.com 1.10,2013-02-03 15:18:00,
2013-02-03 10:33:00,17.9,12.0,30.01,NW,318,3.0,6.0,79,0.00,,,0.00,weatherlink.com 1.10,2013-02-03 15:33:00,
2013-02-03 10:48:00,18.5,13.0,30.01,West,276,2.0,6.0,79,0.00,,,0.00,weatherlink.com 1.10,2013-02-03 15:48:00,
2013-02-03 11:03:00,18.7,13.0,30.01,NNE,26,2.0,7.0,78,0.00,,,0.00,weatherlink.com 1.10,2013-02-03 16:03:00,
2013-02-03 11:18:00,19.5,14.0,30.01,North,349,1.0,7.0,78,0.00,,,0.00,weatherlink.com 1.10,2013-02-03 16:18:00,
2013-02-03 11:33:00,20.5,15.0,30.01,NNW,339,3.0,7.0,78,0.00,,,0.00,weatherlink.com 1.10,2013-02-03 16:33:00,
2013-02-03 11:48:00,20.9,15.0,30.01,WNW,298,1.0,6.0,77,0.00,,,0.00,weatherlink.com 1.10,2013-02-03 16:48:00,
2013-02-03 12:03:00,21.3,15.0,30.01,West,278,2.0,6.0,76,0.00,,,0.00,weatherlink.com 1.10,2013-02-03 17:03:00,
2013-02-03 12:18:00,21.1,15.0,30.01,WNW,291,3.0,8.0,76,0.00,,,0.00,weatherlink.com 1.10,2013-02-03 17:18:00,
2013-02-03 12:33:00,21.6,16.0,30.00,East,85,1.0,7.0,78,0.00,,,0.00,weatherlink.com 1.10,2013-02-03 17:33:00,
2013-02-03 12:48:00,21.9,16.0,30.00,WNW,294,3.0,8.0,77,0.00,,,0.00,weatherlink.com 1.10,2013-02-03 17:48:00,
2013-02-03 13:03:00,21.4,15.0,30.00,West,274,3.0,7.0,77,0.00,,,0.00,weatherlink.com 1.10,2013-02-03 18:03:00,
2013-02-03 13:18:00,21.6,15.0,30.01,North,8,3.0,11.0,76,0.00,,,0.00,weatherlink.com 1.10,2013-02-03 18:18:00,
2013-02-03 13:33:00,21.5,16.0,30.02,NW,319,5.0,10.0,78,0.00,,,0.00,weatherlink.com 1.10,2013-02-03 18:33:00,
2013-02-03 13:48:00,21.5,16.0,30.02,West,277,3.0,10.0,79,0.00,,,0.00,weatherlink.com 1.10,2013-02-03 18:48:00,
2013-02-03 14:03:00,21.6,16.0,30.02,SW,231,6.0,7.0,80,0.00,,,0.00,weatherlink.com 1.10,2013-02-03 19:03:00,
2013-02-03 14:18:00,22.2,17.0,30.02,NNW,339,3.0,8.0,81,0.00,,,0.00,weatherlink.com 1.10,2013-02-03 19:18:00,
2013-02-03 14:33:00,22.4,18.0,30.02,WNW,300,2.0,9.0,82,0.00,,,0.00,weatherlink.com 1.10,2013-02-03 19:33:00,
2013-02-03 14:48:00,22.7,18.0,30.03,WNW,295,2.0,8.0,81,0.00,,,0.00,weatherlink.com 1.10,2013-02-03 19:48:00,
2013-02-03 15:03:00,22.5,18.0,30.03,East,85,2.0,9.0,82,0.00,,,0.00,weatherlink.com 1.10,2013-02-03 20:03:00,
2013-02-03 15:18:00,22.3,18.0,30.04,ENE,58,1.0,9.0,82,0.00,,,0.00,weatherlink.com 1.10,2013-02-03 20:18:00,
2013-02-03 15:33:00,22.5,18.0,30.04,West,266,2.0,9.0,82,0.00,,,0.00,weatherlink.com 1.10,2013-02-03 20:33:00,
2013-02-03 15:48:00,23.4,18.0,30.04,ENE,65,2.0,7.0,80,0.00,,,0.00,weatherlink.com 1.10,2013-02-03 20:48:00,
2013-02-03 16:03:00,23.6,18.0,30.05,NNE,26,6.0,8.0,80,0.00,,,0.00,weatherlink.com 1.10,2013-02-03 21:03:00,
2013-02-03 16:18:00,23.7,18.0,30.05,WSW,249,3.0,11.0,79,0.00,,,0.00,weatherlink.com 1.10,2013-02-03 21:18:00,
2013-02-03 16:33:00,23.6,18.0,30.06,NE,46,1.0,8.0,80,0.00,,,0.00,weatherlink.com 1.10,2013-02-03 21:33:00,
2013-02-03 16:48:00,23.3,20.0,30.06,NNW,328,4.0,7.0,85,0.00,,,0.00,weatherlink.com 1.10,2013-02-03 21:48:00,
2013-02-03 17:03:00,23.0,19.0,30.06,ESE,104,7.0,11.0,86,0.00,,,0.00,weatherlink.com 1.10,2013-02-03 22:03:00,
2013-02-03 17:18:00,22.4,18.0,30.07,NE,43,3.0,10.0,82,0.00,,,0.00,weatherlink.com 1.10,2013-02-03 22:18:00,
2013-02-03 17:33:00,22.0,17.0,30.07,WNW,283,2.0,13.0,80,0.00,,,0.00,weatherlink.com 1.10,2013-02-03 22:33:00,
2013-02-03 17:48:00,22.0,17.0,30.07,ENE,67,1.0,9.0,82,0.00,,,0.00,weatherlink.com 1.10,2013-02-03 22:48:00,
2013-02-03 18:03:00,21.8,17.0,30.08,NW,315,1.0,10.0,83,0.00,,,0.00,weatherlink.com 1.10,2013-02-03 23:03:00,
2013-02-03 18:18:00,21.5,17.0,30.09,North,349,9.0,10.0,81,0.00,,,0.00,weatherlink.com 1.10,2013-02-03 23:18:00,
2013-02-03 18:33:00,20.7,16.0,30.09,North,350,1.0,7.0,82,0.00,,,0.00,weatherlink.com 1.10,2013-02-03 23:33:00,
2013-02-03 18:48:00,20.1,16.0,30.09,West,266,0.0,5.0,83,0.00,,,0.00,weatherlink.com 1.10,2013-02-03 23:48:00,
2013-02-03 19:03:00,19.7,16.0,30.09,West,276,0.0,6.0,84,0.00,,,0.00,weatherlink.com 1.10,2013-02-04 00:03:00,
2013-02-03 19:18:00,19.4,15.0,30.10,WNW,288,1.0,4.0,83,0.00,,,0.00,weatherlink.com 1.10,2013-02-04 00:18:00,
2013-02-03 19:33:00,18.9,15.0,30.11,West,280,1.0,3.0,83,0.00,,,0.00,weatherlink.com 1.10,2013-02-04 00:33:00,
2013-02-03 19:48:00,18.2,14.0,30.11,WSW,255,2.0,2.0,84,0.00,,,0.00,weatherlink.com 1.10,2013-02-04 00:48:00,
2013-02-03 20:03:00,17.2,14.0,30.11,SSE,147,0.0,1.0,85,0.00,,,0.00,weatherlink.com 1.10,2013-02-04 01:03:00,
2013-02-03 20:18:00,16.2,13.0,30.10,SSE,148,0.0,1.0,86,0.00,,,0.00,weatherlink.com 1.10,2013-02-04 01:18:00,
2013-02-03 20:33:00,15.6,12.0,30.10,SSE,148,0.0,1.0,87,0.00,,,0.00,weatherlink.com 1.10,2013-02-04 01:33:00,
2013-02-03 20:48:00,15.5,13.0,30.10,SSE,165,0.0,2.0,88,0.00,,,0.00,weatherlink.com 1.10,2013-02-04 01:48:00,
2013-02-03 21:03:00,15.7,13.0,30.10,SW,231,1.0,1.0,88,0.00,,,0.00,weatherlink.com 1.10,2013-02-04 02:03:00,
2013-02-03 21:18:00,15.3,12.0,30.10,SSW,207,0.0,1.0,88,0.00,,,0.00,weatherlink.com 1.10,2013-02-04 02:18:00,
2013-02-03 21:33:00,15.1,13.0,30.11,South,169,0.0,1.0,89,0.00,,,0.00,weatherlink.com 1.10,2013-02-04 02:33:00,
2013-02-03 21:48:00,14.8,12.0,30.11,South,169,0.0,1.0,89,0.00,,,0.00,weatherlink.com 1.10,2013-02-04 02:48:00,
2013-02-03 22:03:00,15.2,13.0,30.11,South,169,0.0,1.0,90,0.00,,,0.00,weatherlink.com 1.10,2013-02-04 03:03:00,
2013-02-03 22:18:00,15.9,14.0,30.11,SSE,166,0.0,1.0,90,0.00,,,0.00,weatherlink.com 1.10,2013-02-04 03:18:00,
2013-02-03 22:33:00,16.7,14.0,30.11,SSE,160,0.0,3.0,90,0.00,,,0.00,weatherlink.com 1.10,2013-02-04 03:33:00,
2013-02-03 22:49:00,16.5,14.0,30.12,SSE,162,0.0,2.0,88,0.00,,,0.00,weatherlink.com 1.10,2013-02-04 03:49:00,
2013-02-03 23:04:00,16.1,13.0,30.11,SE,143,0.0,2.0,88,0.00,,,0.00,weatherlink.com 1.10,2013-02-04 04:04:00,
2013-02-03 23:19:00,15.8,13.0,30.12,SSW,207,0.0,2.0,88,0.00,,,0.00,weatherlink.com 1.10,2013-02-04 04:19:00,
2013-02-03 23:34:00,16.0,13.0,30.12,SSW,194,0.0,2.0,89,0.00,,,0.00,weatherlink.com 1.10,2013-02-04 04:34:00,
2013-02-03 23:49:00,16.6,14.0,30.12,SSE,167,0.0,2.0,90,0.00,,,0.00,weatherlink.com 1.10,2013-02-04 04:49:00,